Wind_Speed
16 15 14 14 13 12 11 11 11 10 10 9 9 8 8 8 8 8 8 8 8 8 8 8 8 8 8 8 8 8 8 7 7 7 7 7 7 7 7 8 8 8 8
17 16 16 15 15 14 13 13 12 12 11 11 10 10 10 10 9 9 9 9 9 9 9 9 10 10 9 9 9 9 9 9 9 9 9 9 9 9 9 9 9 10 10
18 17 17 16 15 14 14 14 14 14 13 13 12 12 12 11 11 11 11 10 10 10 10 10 11 11 11 11 11 11 11 10 10 10 10 11 10 10 10 10 11 11 11
19 18 18 17 16 15 15 15 15 14 15 15 14 14 14 13 12 12 12 12 12 12 12 12 12 12 12 12 12 12 12 12 12 12 12 12 12 12 12 12 12 12 12
20 19 19 19 17 16 16 16 16 15 15 15 15 15 15 14 14 14 14 14 14 14 13 13 13 13 13 13 13 13 14 14 14 14 14 14 15 15 15 15 14 14 13
21 21 21 20 19 18 17 17 17 17 16 16 16 15 15 15 15 15 16 16 16 16 16 15 15 15 15 15 15 15 15 15 16 17 17 16 17 17 17 17 16 16 15
22 22 22 22 20 19 19 19 18 18 17 16 16 16 16 16 16 16 16 16 17 17 17 18 17 17 17 17 17 18 18 18 18 18 19 18 18 18 18 18 18 18 17
23 22 22 22 22 21 20 20 19 19 18 18 17 17 18 18 18 18 18 18 18 19 19 19 19 19 19 20 20 20 20 20 20 20 20 20 19 19 19 19 20 20 19
24 23 23 23 22 22 22 21 21 20 19 19 19 19 19 19 19 20 20 20 20 20 21 21 21 21 21 21 22 22 22 22 21 21 21 21 21 20 20 20 21 21 21
25 24 24 23 23 23 23 22 22 21 21 21 21 20 20 21 22 22 22 22 22 22 23 23 23 23 23 23 23 23 24 24 23 23 22 22 22 22 22 22 22 22 22
26 25 25 24 24 23 23 23 23 23 23 23 22 22 22 22 23 23 23 24 24 24 24 25 25 25 25 25 25 25 26 25 25 25 24 24 24 24 24 24 24 24 23
27 26 25 25 26 25 24 24 24 24 24 24 23 23 23 23 23 24 25 25 25 25 25 26 27 27 27 26 26 27 27 27 27 26 26 26 26 26 26 26 25 25 25
28 27 26 26 26 26 25 24 25 25 25 25 24 24 24 24 24 25 26 26 26 26 26 26 28 28 28 28 29 29 28 28 28 28 28 28 28 28 27 27 27 27 27
28 27 28 27 26 26 26 25 25 25 26 25 25 25 25 25 25 25 26 27 27 27 27 27 28 29 29 30 31 30 30 30 30 29 29 29 30 29 29 29 29 29 28
28 28 28 28 27 26 27 27 27 26 27 26 26 26 26 26 26 26 26 27 28 28 28 28 29 30 30 31 31 31 32 32 32 32 32 31 31 31 31 30 30 30 30
29 29 29 29 29 28 27 28 28 28 28 28 28 28 27 27 28 28 28 28 29 30 30 30 30 30 31 32 32 32 32 33 33 34 34 34 34 34 33 32 32 31 31
30 31 31 31 30 29 29 28 28 28 29 29 29 29 29 29 29 30 30 30 30 31 31 31 31 31 32 33 33 33 34 34 34 35 36 36 36 36 36 35 34 33 33
30 30 31 31 30 30 29 29 28 29 29 29 30 30 30 30 30 31 31 30 31 31 32 32 32 32 32 33 34 34 34 35 35 36 36 37 37 37 37 37 36 36 36
28 29 30 30 30 30 30 29 29 30 30 30 30 30 30 31 32 32 32 32 32 33 33 34 34 35 34 34 35 35 35 36 36 37 37 38 38 38 38 38 38 38 37
28 29 29 29 29 30 30 30 30 30 31 31 31 31 32 32 33 34 34 34 34 34 35 36 36 37 36 37 36 36 36 37 38 39 40 41 41 40 40 41 41 41 41
28 28 28 29 29 29 30 30 31 32 32 33 33 32 33 33 34 35 36 36 36 36 37 38 39 39 39 39 39 39 38 39 40 40 41 41 42 42 42 42 43 43 43
27 27 27 28 29 29 30 30 31 32 33 34 35 35 35 35 35 36 37 37 38 38 38 39 39 40 41 41 41 42 42 42 42 42 42 42 42 42 43 43 44 44 44
27 28 28 29 29 30 30 31 32 33 34 35 35 36 37 38 38 39 39 39 39 40 40 40 40 41 41 43 43 44 44 44 44 43 44 44 44 44 44 45 45 45 45
28 28 29 29 30 31 32 32 33 33 34 36 36 37 38 39 40 40 41 41 41 41 41 41 42 43 43 44 44 45 46 45 45 44 44 44 44 45 45 45 46 46 46
28 29 30 31 31 32 32 33 34 35 35 36 37 38 39 39 40 41 42 42 42 43 43 43 44 44 44 45 45 45 46 46 47 45 44 44 44 44 44 44 45 46 46
29 30 30 31 32 32 33 34 34 35 35 36 37 38 39 40 41 42 43 43 43 44 44 44 44 45 45 45 45 45 46 46 46 46 45 44 44 44 44 44 45 45 46
Wind_Direction
239 238 238 240 241 242 243 244 244 242 241 240 241 245 248 252 257 260 262 264 265 268 271 271 272 274 275 276 277 278 278 277 278 278 280 284 286 286 286 288 291 295 299
239 239 239 240 242 242 244 246 248 247 246 245 245 246 250 253 255 259 262 263 264 265 268 270 271 272 273 275 276 277 276 276 276 276 277 280 282 283 285 287 289 291 293
238 239 240 242 242 244 246 248 250 250 250 249 248 249 252 256 257 258 260 261 262 265 266 267 269 270 271 272 273 275 276 276 276 276 277 278 278 279 282 285 288 290 291
238 239 241 243 242 244 247 249 250 251 251 250 251 252 252 255 257 257 259 261 261 262 264 266 268 269 269 270 271 273 274 274 275 275 276 277 278 279 280 282 285 287 289
237 238 241 242 242 244 247 249 250 251 252 252 253 253 254 254 256 258 259 260 261 263 265 265 267 269 270 270 271 272 273 273 275 275 275 276 277 278 279 279 280 282 286
238 239 242 244 244 245 247 250 252 253 253 253 254 254 255 256 258 261 262 261 261 263 265 266 267 269 270 271 271 272 273 274 275 275 275 275 275 275 276 276 277 278 281
238 240 243 245 245 245 248 250 252 252 252 253 254 253 253 256 259 261 264 263 263 264 265 267 268 268 269 271 273 273 274 274 275 274 274 275 274 274 274 274 275 276 278
239 241 244 246 246 245 246 248 249 250 251 252 253 254 255 258 260 261 264 266 265 265 266 267 268 269 270 271 273 274 274 274 274 274 274 273 273 274 274 274 274 275 277
237 241 243 246 245 246 246 247 249 249 250 252 254 256 257 259 261 262 263 265 266 267 267 267 268 269 270 271 272 273 273 274 274 273 272 272 271 272 273 274 274 274 275
237 241 243 245 247 248 247 247 249 251 251 253 255 257 259 261 262 263 264 265 267 268 268 268 269 270 271 271 271 272 273 273 273 273 272 272 272 272 272 273 274 275 275
239 241 243 245 246 244 244 245 248 250 252 254 255 257 260 262 263 262 263 265 267 268 268 268 268 270 271 271 272 272 272 272 271 271 271 272 272 272 273 273 273 274 274
241 242 243 244 245 245 244 245 247 250 252 254 256 258 260 262 263 262 263 265 267 268 270 269 269 270 270 271 272 272 272 271 270 270 269 270 271 272 272 272 273 273 273
240 242 242 242 244 245 246 247 249 250 252 256 257 260 261 262 264 264 264 265 266 269 270 271 271 270 270 270 270 271 270 270 269 269 269 269 270 271 271 272 273 273 273
239 241 242 242 244 247 249 250 250 251 253 255 257 259 261 262 264 265 265 266 267 269 271 273 273 272 271 271 270 269 269 269 268 268 269 269 270 270 271 272 272 272 273
239 241 242 244 245 247 249 251 252 253 253 254 256 258 260 262 263 264 265 266 268 270 272 273 273 273 272 272 271 268 267 267 268 268 269 270 270 270 270 270 270 271 272
241 243 245 247 248 248 249 251 254 253 254 256 257 258 260 262 263 264 266 268 270 271 273 274 274 273 272 271 270 269 268 268 268 268 269 269 269 269 269 270 270 271 272
242 244 246 248 249 250 251 253 254 255 255 256 258 258 260 262 263 265 267 269 271 272 273 276 276 275 274 273 271 270 269 269 269 269 269 268 268 268 268 269 270 270 271
244 245 246 248 249 251 253 255 256 256 256 256 258 259 260 262 264 266 267 268 270 272 274 276 277 276 275 274 272 272 272 271 270 270 270 269 267 267 267 268 268 270 270
247 248 248 249 250 252 254 257 257 257 257 257 259 260 262 264 265 267 268 269 270 272 273 275 275 275 275 274 274 273 273 272 271 271 270 269 269 267 266 266 267 268 269
249 250 250 250 251 252 255 256 257 257 257 257 260 263 264 265 266 268 269 270 271 272 273 274 274 275 274 274 274 274 274 273 272 272 271 270 270 268 267 267 266 267 267
250 251 251 251 252 253 254 256 257 259 259 260 261 263 265 267 267 269 271 271 271 272 273 274 275 274 274 274 273 274 274 274 273 273 272 271 270 269 267 267 266 266 266
251 251 252 252 254 255 256 258 259 261 262 263 264 265 266 268 269 270 271 272 273 273 273 273 274 274 274 274 274 275 275 274 273 273 272 271 269 269 267 267 267 267 266
252 253 254 254 255 256 258 260 261 263 263 265 266 268 269 270 270 271 271 273 273 273 274 274 274 275 275 275 275 275 275 274 272 271 271 271 270 269 269 267 267 267 267
254 254 254 255 256 258 259 260 262 264 265 267 267 269 270 271 271 272 273 275 275 274 274 275 275 276 276 276 275 275 275 275 273 271 271 270 269 269 269 268 267 266 266
254 254 255 255 257 260 261 262 263 265 267 269 269 270 271 272 273 273 275 276 276 276 276 276 276 276 276 276 276 276 276 275 274 272 270 269 269 269 269 268 266 266 265
255 255 257 257 259 260 262 263 264 266 268 270 270 272 272 273 274 275 276 277 278 278 277 277 277 277 276 276 276 276 276 275 274 273 271 270 269 269 269 269 268 267 265
Height
5847 5848 5849 5851 5852 5853 5854 5855 5856 5858 5859 5859 5861 5862 5863 5863 5864 5865 5866 5867 5867 5868 5869 5870 5870 5871 5872 5872 5872 5873 5873 5874 5874 5875 5875 5875 5875 5875 5875 5875 5875 5875 5875
5844 5845 5847 5848 5849 5850 5852 5853 5854 5855 5856 5857 5858 5859 5860 5861 5862 5863 5864 5865 5866 5866 5867 5868 5868 5869 5870 5870 5871 5871 5872 5872 5873 5873 5873 5874 5874 5874 5874 5874 5874 5874 5873
5840 5842 5843 5845 5846 5848 5849 5850 5851 5853 5854 5855 5856 5857 5858 5859 5860 5861 5862 5863 5863 5864 5865 5866 5866 5867 5868 5869 5869 5870 5870 5870 5871 5871 5872 5872 5872 5872 5872 5872 5872 5872 5872
5837 5839 5840 5842 5843 5844 5846 5847 5848 5850 5851 5852 5853 5854 5855 5856 5857 5858 5859 5860 5861 5862 5863 5864 5864 5865 5865 5866 5867 5867 5868 5868 5869 5869 5869 5870 5870 5870 5870 5870 5870 5870 5869
5833 5835 5837 5838 5840 5841 5843 5844 5845 5846 5848 5848 5850 5851 5852 5853 5854 5855 5856 5857 5858 5859 5860 5861 5862 5862 5863 5863 5864 5865 5865 5866 5866 5867 5867 5867 5867 5867 5868 5868 5867 5867 5867
5829 5831 5833 5835 5836 5838 5839 5840 5842 5843 5844 5845 5846 5847 5849 5850 5851 5852 5853 5854 5855 5856 5857 5858 5858 5859 5860 5860 5861 5862 5862 5863 5863 5864 5864 5864 5864 5864 5865 5865 5865 5865 5865
5825 5827 5829 5830 5832 5833 5835 5837 5838 5839 5841 5842 5843 5844 5845 5846 5847 5848 5849 5850 5851 5852 5853 5854 5855 5855 5856 5857 5858 5858 5859 5859 5860 5860 5860 5861 5861 5861 5861 5861 5862 5862 5862
5820 5822 5824 5826 5828 5829 5831 5832 5834 5835 5837 5838 5839 5840 5841 5843 5844 5844 5845 5846 5847 5848 5849 5850 5851 5852 5852 5853 5854 5854 5855 5855 5856 5856 5857 5857 5857 5857 5857 5858 5858 5858 5858
5815 5818 5820 5822 5823 5825 5827 5828 5830 5831 5833 5834 5835 5836 5838 5839 5839 5840 5841 5842 5843 5844 5845 5846 5846 5847 5848 5849 5849 5850 5850 5851 5852 5852 5852 5853 5853 5853 5854 5854 5854 5854 5854
5810 5813 5815 5817 5819 5820 5822 5824 5825 5826 5828 5829 5831 5832 5833 5834 5835 5836 5837 5838 5838 5839 5840 5841 5842 5843 5843 5844 5845 5845 5846 5846 5847 5847 5848 5848 5849 5849 5849 5850 5850 5850 5850
5805 5807 5809 5812 5813 5815 5817 5818 5820 5822 5823 5825 5826 5827 5828 5829 5830 5831 5832 5833 5833 5834 5835 5836 5836 5837 5838 5839 5839 5840 5841 5841 5842 5842 5843 5844 5844 5844 5845 5845 5845 5845 5846
5800 5802 5804 5806 5808 5809 5811 5813 5815 5817 5818 5819 5821 5822 5823 5824 5825 5826 5827 5828 5828 5829 5830 5830 5831 5831 5832 5833 5834 5834 5835 5836 5836 5837 5838 5838 5839 5839 5839 5840 5840 5841 5841
5794 5797 5799 5800 5801 5803 5805 5808 5810 5811 5813 5814 5815 5817 5818 5819 5820 5820 5821 5822 5823 5823 5824 5824 5825 5826 5826 5827 5828 5828 5829 5830 5830 5831 5832 5832 5833 5833 5834 5834 5835 5835 5835
5788 5790 5792 5793 5795 5798 5800 5802 5804 5806 5807 5809 5810 5811 5812 5813 5814 5815 5816 5816 5817 5818 5818 5819 5819 5819 5820 5820 5821 5822 5822 5823 5824 5825 5825 5826 5826 5827 5828 5828 5828 5829 5829
5781 5783 5786 5787 5790 5792 5794 5796 5798 5800 5801 5803 5804 5805 5806 5807 5808 5809 5810 5810 5811 5811 5812 5812 5812 5813 5813 5814 5814 5815 5816 5816 5817 5818 5819 5819 5820 5820 5821 5821 5822 5822 5823
5775 5777 5780 5782 5784 5786 5788 5790 5792 5793 5795 5796 5798 5799 5800 5801 5802 5803 5803 5804 5804 5805 5805 5806 5806 5806 5806 5806 5807 5808 5808 5809 5810 5810 5811 5812 5812 5813 5814 5814 5815 5815 5816
5769 5772 5774 5776 5778 5780 5782 5784 5786 5787 5788 5790 5791 5792 5793 5794 5795 5796 5797 5797 5798 5798 5798 5798 5799 5799 5799 5799 5800 5800 5801 5801 5802 5802 5803 5804 5804 5805 5806 5806 5807 5808 5808
5763 5766 5768 5770 5772 5774 5776 5778 5779 5780 5782 5783 5784 5785 5786 5787 5788 5789 5790 5790 5791 5791 5791 5791 5792 5791 5791 5792 5792 5792 5793 5793 5794 5794 5794 5795 5796 5796 5797 5798 5799 5799 5800
5758 5760 5762 5764 5766 5768 5770 5771 5772 5773 5775 5776 5777 5778 5779 5780 5781 5782 5782 5783 5783 5784 5784 5784 5784 5784 5784 5784 5784 5784 5784 5785 5785 5785 5786 5786 5787 5787 5788 5789 5789 5790 5791
5752 5754 5756 5758 5760 5762 5763 5764 5765 5766 5768 5769 5769 5770 5772 5772 5773 5774 5774 5775 5775 5776 5776 5776 5776 5776 5775 5775 5775 5776 5776 5776 5776 5777 5777 5777 5777 5778 5778 5779 5780 5781 5782
5747 5749 5750 5752 5754 5755 5756 5758 5759 5760 5761 5761 5762 5763 5764 5765 5765 5766 5766 5767 5767 5767 5767 5767 5767 5767 5767 5766 5766 5767 5767 5767 5767 5767 5767 5767 5767 5768 5768 5769 5769 5771 5772
5741 5743 5745 5746 5747 5749 5750 5751 5752 5753 5754 5754 5755 5755 5756 5757 5757 5758 5758 5758 5758 5758 5758 5758 5758 5757 5757 5757 5757 5757 5757 5758 5757 5757 5757 5757 5757 5757 5758 5758 5759 5760 5761
5736 5737 5739 5740 5741 5742 5743 5744 5745 5746 5746 5747 5747 5747 5748 5748 5748 5749 5749 5749 5749 5748 5748 5748 5748 5747 5747 5746 5746 5746 5746 5747 5747 5747 5746 5746 5746 5746 5747 5747 5747 5748 5749
5730 5731 5732 5733 5734 5735 5736 5737 5738 5738 5738 5739 5739 5739 5739 5739 5739 5739 5739 5739 5739 5738 5738 5738 5737 5737 5736 5736 5735 5734 5734 5734 5734 5736 5736 5735 5735 5735 5735 5735 5736 5736 5737
5724 5725 5725 5726 5728 5729 5729 5730 5730 5730 5730 5730 5730 5730 5730 5730 5730 5730 5729 5729 5729 5728 5728 5727 5727 5726 5725 5725 5724 5723 5723 5722 5722 5723 5724 5724 5724 5723 5723 5724 5724 5724 5725
5717 5718 5719 5719 5720 5721 5722 5722 5722 5722 5722 5722 5722 5722 5721 5721 5720 5720 5719 5719 5718 5717 5717 5716 5715 5714 5714 5713 5712 5712 5711 5711 5710 5710 5711 5712 5712 5712 5712 5712 5712 5712 5713